Location: Bratislava
(48.1500°N, 17.1170°E)
Time: 07:11:21
(UTC+02:00)

Transit 4A - All Passes

Search period start: 08 June 2026 00:00
Search period end: 18 June 2026 00:00
Orbit: 860 x 980 km, 66.8° (Epoch: 7 June)

Date Brightness Start Highest point End Pass type
(mag) Time Alt. Az. Time Alt. Az. Time Alt. Az.
8 Jun - 01:55:22 10° SE 01:59:05 17° ESE 02:02:51 10° ENE visible
8 Jun - 03:38:13 10° SSW 03:44:26 82° ESE 03:50:52 10° NE visible
8 Jun - 05:26:06 10° W 05:31:31 29° NW 05:37:02 10° NNE daylight
8 Jun - 07:16:38 10° NW 07:20:08 15° N 07:23:40 10° NNE daylight
8 Jun - 09:05:06 10° NNW 09:09:16 17° NNE 09:13:25 10° ENE daylight
8 Jun - 10:51:18 10° NNW 10:57:24 43° NE 11:03:24 10° ESE daylight
8 Jun - 12:37:46 10° NW 12:43:54 49° WSW 12:49:55 10° S daylight
9 Jun - 02:02:41 10° SSE 02:07:29 24° ESE 02:12:23 10° NE visible
9 Jun - 03:46:57 10° SW 03:53:12 75° NW 03:59:38 10° NNE visible
9 Jun - 05:35:36 10° W 05:40:38 24° NNW 05:45:45 10° NNE daylight
9 Jun - 07:26:10 10° NW 07:29:29 14° N 07:32:48 10° NNE daylight
9 Jun - 09:13:53 10° NNW 09:18:30 20° NNE 09:23:06 10° ENE daylight
9 Jun - 11:00:01 10° NNW 11:06:20 55° NE 11:12:32 10° SE daylight
9 Jun - 12:46:45 10° NW 12:52:27 35° WSW 12:58:04 10° S daylight
10 Jun - 02:10:29 10° S 02:15:57 34° ESE 02:21:34 10° NE visible
10 Jun - 03:55:53 10° SW 04:02:02 57° NW 04:08:21 10° NNE visible
10 Jun - 05:45:13 10° WNW 05:49:49 20° NNW 05:54:29 10° NNE daylight
10 Jun - 07:35:31 10° NNW 07:38:50 14° N 07:42:09 10° NE daylight
10 Jun - 09:22:37 10° NNW 09:27:42 24° NNE 09:32:44 10° E daylight
10 Jun - 11:08:43 10° NNW 11:15:11 73° NE 11:21:29 10° SE daylight
10 Jun - 12:55:54 10° NW 13:00:56 25° WSW 13:05:55 10° SSW daylight
11 Jun - 02:18:36 10° S 02:24:30 47° ESE 02:30:34 10° NE visible
11 Jun - 04:04:58 10° WSW 04:10:56 43° NW 04:17:03 10° NNE visible
11 Jun - 05:54:54 10° WNW 05:59:03 18° NNW 06:03:15 10° NNE daylight
11 Jun - 07:44:40 10° NNW 07:48:11 15° N 07:51:41 10° NE daylight
11 Jun - 09:31:19 10° NNW 09:36:49 29° NE 09:42:15 10° E daylight
11 Jun - 11:17:29 10° NW 11:23:56 85° WSW 11:30:15 10° SSE daylight
11 Jun - 13:05:22 10° WNW 13:09:22 18° WSW 13:13:18 10° SW daylight
12 Jun - 00:45:46 10° ESE 00:48:02 12° E 00:50:19 10° ENE visible
12 Jun - 02:26:58 10° SSW 02:33:07 65° ESE 02:39:28 10° NE visible
12 Jun - 04:14:14 10° WSW 04:19:56 34° NW 04:25:45 10° NNE daylight
12 Jun - 06:04:35 10° NW 06:08:21 16° NNW 06:12:08 10° NNE daylight
12 Jun - 07:53:39 10° NNW 07:57:30 16° NNE 08:01:20 10° NE daylight
12 Jun - 09:40:00 10° NNW 09:45:52 35° NE 09:51:39 10° ESE daylight
12 Jun - 11:26:18 10° NW 11:32:38 63° WSW 11:38:49 10° SSE daylight
12 Jun - 13:15:43 10° W 13:17:42 12° W 13:19:40 10° WSW daylight
13 Jun - 00:52:20 10° SE 00:56:22 18° ESE 01:00:29 10° ENE visible
13 Jun - 02:35:34 10° SSW 02:41:50 88° ESE 02:48:16 10° NE visible
13 Jun - 04:23:39 10° W 04:29:00 28° NW 04:34:25 10° NNE daylight
13 Jun - 06:14:13 10° NW 06:17:40 15° N 06:21:08 10° NNE daylight
13 Jun - 08:02:31 10° NNW 08:06:47 18° NNE 08:11:02 10° ENE daylight
13 Jun - 09:48:41 10° NNW 09:54:51 45° NE 10:00:54 10° ESE daylight
13 Jun - 11:35:12 10° NW 11:41:15 45° WSW 11:47:10 10° S daylight
14 Jun - 00:59:47 10° SSE 01:04:48 26° ESE 01:09:55 10° NE visible
14 Jun - 02:44:21 10° SW 02:50:36 70° NW 02:57:02 10° NNE visible
14 Jun - 04:33:11 10° W 04:38:07 23° NNW 04:43:08 10° NNE daylight
14 Jun - 06:23:43 10° NNW 06:27:01 14° N 06:30:20 10° NNE daylight
14 Jun - 08:11:17 10° NNW 08:16:01 21° NNE 08:20:42 10° ENE daylight
14 Jun - 09:57:23 10° NNW 10:03:45 59° NE 10:09:59 10° SE daylight
14 Jun - 11:44:13 10° NW 11:49:48 32° WSW 11:55:15 10° S daylight
15 Jun - 01:07:41 10° S 01:13:17 37° ESE 01:19:03 10° NE visible
15 Jun - 02:53:19 10° SW 02:59:28 53° NW 03:05:45 10° NNE visible
15 Jun - 04:42:49 10° WNW 04:47:20 20° NNW 04:51:52 10° NNE daylight
15 Jun - 06:33:01 10° NNW 06:36:22 14° N 06:39:43 10° NE daylight
15 Jun - 08:20:00 10° NNW 08:25:11 25° NNE 08:30:19 10° E daylight
15 Jun - 10:06:07 10° NNW 10:12:35 78° NE 10:18:53 10° SE daylight
15 Jun - 11:53:26 10° WNW 11:58:15 23° WSW 12:03:00 10° SSW daylight
16 Jun - 01:15:52 10° S 01:21:51 51° ESE 01:28:01 10° NE visible
16 Jun - 03:02:28 10° WSW 03:08:23 41° NW 03:14:26 10° NNE visible
16 Jun - 04:52:30 10° WNW 04:56:34 17° NNW 05:00:40 10° NNE daylight
16 Jun - 06:42:08 10° NNW 06:45:42 15° N 06:49:17 10° NE daylight
16 Jun - 08:28:41 10° NNW 08:34:18 30° NE 08:39:48 10° E daylight
16 Jun - 10:14:53 10° NW 10:21:20 79° WSW 10:27:36 10° SSE daylight
16 Jun - 12:03:01 10° WNW 12:06:39 16° WSW 12:10:14 10° SW daylight
16 Jun - 23:42:27 10° SE 23:45:19 13° E 23:48:12 10° ENE visible
17 Jun - 01:24:17 10° SSW 01:30:30 71° ESE 01:36:53 10° NE visible
17 Jun - 03:11:46 10° W 03:17:23 33° NW 03:23:07 10° NNE visible
17 Jun - 05:02:11 10° NW 05:05:52 16° NNW 05:09:34 10° NNE daylight
17 Jun - 06:51:04 10° NNW 06:55:01 16° NNE 06:58:56 10° NE daylight
17 Jun - 08:37:23 10° NNW 08:43:19 37° NE 08:49:10 10° ESE daylight
17 Jun - 10:23:43 10° NW 10:30:00 58° WSW 10:36:07 10° SSE daylight
17 Jun - 12:14:14 10° W 12:14:58 10° W 12:15:44 10° WSW daylight
17 Jun - 23:49:20 10° SSE 23:53:40 20° ESE 23:58:05 10° ENE visible
